Location: Boss Branch
(32.3799°N, 97.2508°W)
Time: 06:02:05
(UTC+00:00)

Envisat - Visible Passes

Search period start: 05 October 2024 00:00
Search period end: 15 October 2024 00:00
Orbit: 762 x 764 km, 98.3° (Epoch: 04 October)

Date Brightness Start Highest point End Pass type
(mag) Time Alt. Az. Time Alt. Az. Time Alt. Az.
05 Oct 5.3 09:56:22 10° N 09:57:01 14° N 09:57:01 14° N visible
06 Oct 5.8 09:18:51 10° NNE 09:18:59 11° NNE 09:18:59 11° NNE visible
07 Oct 5.3 10:20:48 10° NNW 10:21:04 11° NNW 10:21:04 11° NNW visible
08 Oct 5.6 09:42:48 10° N 09:43:02 11° N 09:43:02 11° N visible
10 Oct 5.5 10:07:03 10° N 10:07:03 10° N 10:07:03 10° N visible
